Temp
13 13 12 12 12 11 11 11 11 11 11 11 11 11 11 11 11 11 11 11 11 11 11 10 10 10 10 10 10 10 10 10 10 10 10 10 10 10 10 10 10 10 10 10 9 9 9 9 9 9 9 9 8 8 8 8 8 8 8 8 9 9 8 8 8 8 8 8 8
13 13 12 12 12 11 11 11 11 11 11 11 11 11 11 11 10 10 10 10 10 10 10 10 10 10 10 10 10 10 10 10 10 10 10 10 10 10 10 10 10 10 9 9 9 9 9 9 9 9 9 9 9 8 8 8 8 8 8 8 8 8 8 8 8 8 8 8 8
13 12 12 12 12 11 11 11 11 11 11 11 11 11 10 10 10 10 10 10 10 10 10 10 10 10 10 10 10 10 10 10 10 10 10 10 9 9 9 9 9 9 9 9 9 9 9 9 9 9 9 9 9 9 9 9 9 8 8 8 8 8 8 8 8 8 8 8 8
12 12 12 12 12 12 11 11 11 11 11 11 10 10 10 10 10 10 10 10 10 10 10 10 10 10 10 10 10 10 10 10 10 9 9 9 9 9 9 9 9 9 9 9 9 9 9 9 9 9 9 9 9 9 9 9 9 9 9 9 8 8 8 8 8 8 8 8 8
12 12 12 11 11 11 11 11 11 11 11 10 10 10 10 10 10 10 10 10 10 10 10 10 10 10 10 10 10 10 10 9 9 9 9 9 9 9 9 9 9 9 9 9 9 9 9 9 9 9 9 9 9 9 9 9 9 9 9 9 9 9 8 8 8 8 8 8 8
12 11 11 11 11 11 11 10 10 10 10 10 10 10 10 10 10 10 10 10 10 10 10 10 10 10 10 10 10 9 9 9 9 9 9 9 9 9 9 9 9 9 9 9 9 9 9 9 9 9 9 9 9 9 9 9 9 9 9 9 9 9 9 8 8 8 8 8 8
11 11 11 11 11 10 10 10 10 10 10 10 10 10 10 10 10 10 10 10 10 10 10 10 10 10 10 9 9 9 9 9 9 9 9 9 9 9 9 9 9 9 9 9 9 9 9 9 9 9 9 9 9 9 9 9 8 9 9 9 9 9 8 8 8 8 8 8 8
11 11 11 11 10 10 10 10 10 10 10 10 10 10 10 10 10 10 10 10 10 10 10 10 10 9 9 9 9 9 9 9 9 8 8 8 8 8 8 8 8 8 8 8 8 8 9 9 9 9 9 9 8 8 8 8 8 8 8 8 8 8 8 8 8 8 8 8 8
11 11 10 10 10 10 10 10 10 10 10 10 10 10 10 10 10 10 10 10 10 10 10 9 9 9 9 9 9 8 8 8 8 8 8 8 8 8 8 8 8 8 8 8 8 8 8 8 8 8 8 8 8 8 8 8 8 8 8 8 8 8 8 8 8 8 7 7 7
11 10 10 10 10 10 10 9 9 9 9 9 10 10 10 10 10 10 10 10 9 9 9 9 9 9 9 9 8 8 8 8 8 8 8 8 8 8 8 8 8 8 8 8 7 7 7 7 7 7 7 7 8 8 8 7 7 7 7 7 7 7 7 7 7 7 7 7 7
10 10 10 10 10 10 9 9 9 9 9 9 9 9 9 9 9 9 9 9 9 9 9 9 9 9 8 8 8 8 8 8 8 8 8 8 8 8 7 7 7 7 7 7 7 7 7 7 7 7 7 7 7 7 7 7 7 7 6 6 6 6 6 6 6 6 6 6 6
10 10 10 10 10 9 9 9 9 9 9 9 9 9 9 9 9 9 9 9 9 9 9 9 8 8 8 8 8 7 7 7 7 7 7 7 7 7 7 7 7 7 7 7 7 6 6 6 6 6 6 6 6 6 6 6 6 6 6 6 6 6 6 6 6 6 5 5 5
10 10 10 10 10 9 9 9 9 9 9 9 9 9 9 9 9 9 9 9 8 8 8 8 8 8 7 7 7 7 7 7 7 7 7 7 7 7 7 7 7 7 6 6 6 6 6 6 6 6 6 6 6 6 5 5 5 5 5 5 5 5 5 5 5 5 5 5 5
10 10 10 10 10 9 9 9 9 9 9 9 9 9 9 9 8 8 8 8 8 8 8 7 7 7 7 7 7 7 7 7 7 7 7 7 7 6 6 6 6 6 6 6 6 6 6 6 5 5 5 5 5 5 5 5 5 5 4 4 4 4 4 4 4 4 4 4 4
10 10 10 10 9 9 9 9 9 9 9 9 9 8 8 8 8 8 8 8 7 7 7 7 7 7 7 7 6 6 6 6 6 6 6 6 6 6 6 6 6 6 6 6 5 5 5 5 5 5 5 5 5 4 4 4 4 4 4 4 4 3 3 3 3 3 3 3 3
10 10 10 9 9 9 9 9 9 9 8 8 8 8 8 8 7 7 7 7 7 7 7 6 6 6 6 6 6 6 6 6 6 6 6 6 6 6 6 6 5 5 5 5 5 5 5 5 5 4 4 4 4 4 4 4 3 3 3 3 3 3 3 3 3 3 3 3 2
10 9 9 9 9 9 9 9 8 8 8 8 8 7 7 7 7 7 7 6 6 6 6 6 6 6 6 6 6 6 6 6 6 6 6 6 5 5 5 5 5 5 5 5 4 4 4 4 4 4 4 4 4 3 3 3 3 3 3 3 2 2 2 2 2 2 2 2 2
9 9 9 9 9 9 8 8 8 8 7 7 7 7 7 7 6 6 6 6 6 6 6 6 6 6 5 5 5 5 5 5 5 5 5 5 5 5 5 5 5 5 4 4 4 4 4 4 4 4 3 3 3 3 3 3 3 2 2 2 2 2 2 2 2 2 2 1 1
9 9 9 9 8 8 8 8 7 7 7 7 7 7 6 6 6 6 6 6 6 6 6 5 5 5 5 5 5 5 5 5 5 5 5 5 5 5 5 5 4 4 4 4 4 4 4 3 3 3 3 3 3 3 2 2 2 2 2 2 2 2 2 1 1 1 1 1 1
8 8 8 8 8 8 7 7 7 7 7 6 6 6 6 6 6 6 6 6 5 5 5 5 5 5 5 5 5 5 5 5 5 5 5 5 5 4 4 4 4 4 4 4 4 3 3 3 3 3 3 2 2 2 2 2 2 2 2 2 1 1 1 1 1 1 1 1 1
8 8 8 7 7 7 7 7 7 6 6 6 6 6 6 6 6 6 5 5 5 5 5 5 5 5 5 5 5 5 5 5 5 4 4 4 4 4 4 4 4 4 4 3 3 3 3 3 2 2 2 2 2 2 2 2 1 1 1 1 1 1 1 1 1 1 1 1 1
8 7 7 7 7 7 6 6 6 6 6 6 6 6 6 6 5 5 5 5 5 5 5 5 5 5 5 5 5 4 4 4 4 4 4 4 4 4 4 4 4 3 3 3 3 3 3 2 2 2 2 2 2 2 1 1 1 1 1 1 1 1 1 1 1 1 1 1 1
7 7 7 6 6 6 6 6 6 6 6 6 6 6 5 5 5 5 5 5 5 5 5 5 5 5 4 4 4 4 4 4 4 4 4 4 4 4 4 3 3 3 3 3 3 3 2 2 2 2 2 2 2 1 1 1 1 1 1 1 1 1 1 1 1 1 1 1 1
7 6 6 6 6 6 6 6 6 6 6 5 5 5 5 5 5 5 5 5 5 5 5 5 4 4 4 4 4 4 4 4 4 4 4 4 3 3 3 3 3 3 3 3 2 2 2 2 2 2 2 2 2 1 1 1 1 1 1 1 1 1 1 1 1 1 1 1 1
6 6 6 6 5 5 5 5 5 5 5 5 5 5 5 5 5 5 5 5 5 4 4 4 4 4 4 4 4 4 4 4 4 4 3 3 3 3 3 3 3 2 2 2 2 2 2 2 2 2 2 2 2 2 1 1 1 1 1 1 1 1 1 1 1 1 1 1 1
6 5 5 5 5 5 5 5 5 5 5 5 5 5 5 5 5 5 5 4 4 4 4 4 4 4 4 4 4 4 4 4 4 3 3 3 3 3 3 2 2 2 2 2 2 2 2 2 2 2 2 2 2 2 1 1 1 1 1 1 1 1 1 1 1 1 1 1 1
5 5 5 5 5 5 5 5 5 5 5 5 5 5 5 5 5 4 4 4 4 4 4 4 4 4 4 4 4 4 4 3 3 3 3 3 3 3 2 2 2 2 2 2 2 2 2 2 2 2 2 2 2 2 2 1 1 1 1 1 1 1 1 1 1 1 1 1 1
4 4 4 5 5 5 5 5 5 5 5 5 5 5 5 4 4 4 4 4 4 4 4 4 4 4 4 4 4 4 3 3 3 3 3 3 3 3 3 2 2 2 2 2 2 2 2 2 2 2 2 2 2 2 1 1 1 1 1 1 1 1 1 1 1 1 1 1 2
4 4 4 4 5 5 5 5 5 5 5 5 5 4 4 4 4 4 4 4 4 4 4 4 4 4 4 3 3 3 3 3 3 3 3 3 3 3 3 3 2 2 2 2 2 2 2 2 2 2 2 2 2 1 1 1 1 1 1 1 1 1 1 1 1 1 1 1 2
4 4 4 4 5 5 5 5 5 5 5 5 4 4 4 4 4 4 4 4 4 4 4 4 3 3 3 3 3 3 3 3 3 3 3 3 3 3 3 2 2 2 2 2 2 2 2 2 2 2 2 2 2 1 1 1 1 1 0 0 1 1 1 1 1 1 1 1 1
4 4 4 4 4 4 4 5 5 4 4 4 4 4 4 4 4 4 4 4 4 4 3 3 3 3 3 3 3 3 3 3 3 3 3 3 3 2 2 2 2 2 2 2 2 2 2 2 2 2 2 2 1 1 1 1 1 1 0 0 1 1 1 1 1 1 1 1 1
4 4 4 4 4 4 4 4 4 4 4 4 4 4 4 4 4 4 4 3 3 3 3 3 3 3 3 3 3 3 3 3 3 3 3 3 2 2 2 2 2 2 2 2 2 2 2 2 1 1 1 1 1 1 1 1 1 1 1 1 1 1 1 1 1 1 1 1 1
4 4 4 4 4 4 4 4 4 4 4 4 4 4 4 4 3 3 3 3 3 3 3 3 3 3 3 3 3 3 3 3 3 3 2 2 2 2 2 2 2 2 2 2 2 1 1 1 1 1 1 1 1 1 1 1 1 1 1 1 1 1 1 1 1 1 1 1 1
4 4 4 4 4 4 4 4 4 4 4 4 4 4 4 3 3 3 3 3 3 3 3 3 3 3 3 3 3 3 3 3 3 2 2 2 2 2 2 2 2 2 1 1 1 1 1 1 1 1 1 1 1 1 1 1 1 0 1 1 1 1 1 1 1 1 1 1 1
4 4 4 4 4 4 4 4 4 4 4 4 4 3 3 3 3 3 3 3 3 3 3 3 3 3 3 3 3 3 3 3 2 2 2 2 2 2 2 2 1 1 1 1 1 1 1 1 1 1 1 1 1 1 1 1 1 1 1 1 1 1 1 1 1 1 1 1 1
4 4 5 5 4 4 4 4 4 4 4 3 3 3 3 3 3 3 3 3 3 3 3 3 3 3 3 3 3 3 3 2 2 2 2 2 2 2 2 1 1 1 1 1 1 1 1 1 1 1 1 1 1 1 1 1 1 1 1 1 1 1 1 1 1 1 1 2 2
5 5 5 4 4 4 4 4 4 3 3 3 3 3 3 3 3 3 3 3 3 3 3 3 3 3 3 3 3 2 2 2 2 2 2 2 2 1 1 1 1 1 1 1 1 1 1 1 1 1 1 1 1 1 1 1 1 1 1 1 1 1 1 1 2 2 2 2 2
5 4 4 4 4 4 4 4 3 3 3 3 3 3 3 3 3 2 2 2 2 2 2 2 3 3 3 2 2 2 2 2 2 2 2 2 1 1 1 1 1 1 1 1 1 1 1 1 1 1 1 1 1 1 1 1 1 1 1 1 1 1 2 2 2 2 2 2 2
4 4 4 4 4 4 4 3 3 3 3 3 3 3 3 2 2 2 2 2 2 2 2 2 2 2 2 2 2 2 2 2 2 2 2 2 1 1 1 1 1 1 1 1 1 1 1 1 1 1 1 1 1 1 1 1 1 1 1 1 1 2 2 2 2 2 2 2 2
4 4 4 4 4 4 3 3 3 3 3 3 3 3 2 2 2 2 2 2 2 2 2 2 2 2 2 2 2 2 2 2 2 2 2 1 1 1 1 1 1 1 1 1 1 1 1 1 1 1 1 1 1 1 1 1 1 1 1 1 1 2 2 2 2 2 2 2 2
4 4 4 4 4 3 3 3 3 3 3 3 3 2 2 2 2 2 2 2 2 2 2 2 2 2 2 2 2 2 2 2 2 2 2 1 1 1 1 1 1 1 1 1 1 1 1 1 1 1 1 1 1 1 1 1 1 1 1 2 2 2 2 2 2 2 2 2 2
Height
826 826 826 825 825 825 824 824 824 824 823 823 822 822 821 820 820 819 818 818 817 816 815 814 813 812 812 811 810 809 809 808 807 806 806 805 804 803 802 801 800 799 799 798 797 796 796 795 794 793 792 791 791 790 789 789 788 787 787 786 785 784 784 783 783 782 781 781 780
826 826 825 825 824 824 824 824 823 823 822 822 821 821 820 819 819 818 817 816 816 815 814 813 812 811 810 810 809 808 807 806 806 805 804 803 802 801 800 800 799 798 797 796 795 795 794 793 793 792 791 790 789 788 787 786 786 785 784 784 783 782 782 781 780 779 779 778 778
826 825 825 825 824 824 824 823 823 822 822 821 821 820 819 819 818 817 816 815 814 814 813 812 811 810 809 808 808 807 806 805 804 803 802 801 800 799 799 798 797 796 795 794 794 793 792 792 791 790 789 788 787 786 785 784 784 783 782 781 781 780 779 779 778 777 777 776 775
825 825 825 824 824 824 823 823 822 822 821 820 820 819 818 817 816 815 814 814 813 812 811 810 809 809 808 807 806 805 804 803 803 801 800 799 799 798 797 796 795 794 794 793 792 791 790 790 789 788 787 786 785 784 783 783 782 781 780 779 779 778 777 776 775 775 774 773 773
825 824 824 824 824 823 823 822 822 821 820 819 819 818 817 816 815 814 814 813 812 811 810 809 808 807 806 805 804 804 803 802 801 800 799 798 797 796 795 794 794 793 792 791 790 789 789 788 787 786 785 784 783 782 781 780 780 779 778 777 776 775 774 774 773 772 772 770 770
824 824 824 823 823 822 822 821 821 820 819 819 818 817 816 815 814 814 813 812 811 809 809 808 807 806 805 804 803 802 801 800 799 798 797 796 795 794 793 792 792 791 790 789 789 788 787 786 785 784 783 782 781 780 779 779 778 777 776 775 774 773 772 771 770 770 769 768 767
824 824 823 823 822 822 821 820 820 819 819 818 817 816 815 814 814 813 811 810 809 808 807 806 805 804 803 802 801 800 799 798 797 796 795 794 793 792 791 791 790 789 788 788 787 786 785 785 784 782 781 780 779 778 777 777 776 775 774 772 772 771 770 769 768 768 767 766 765
823 823 823 822 821 821 820 819 819 818 817 817 816 815 814 813 812 811 810 809 808 807 806 805 804 803 802 801 800 799 798 797 796 794 794 793 792 791 790 789 788 787 786 786 785 784 784 783 782 780 779 778 777 776 775 774 774 773 772 770 769 769 768 767 767 766 765 764 763
823 822 822 821 820 820 819 819 818 817 816 815 814 814 813 812 811 810 809 808 806 805 804 803 802 801 800 799 798 797 796 795 794 793 792 791 790 789 788 787 786 785 784 784 783 783 782 781 780 779 778 777 775 774 773 773 772 771 770 769 768 767 766 766 765 764 763 762 761
822 822 821 820 819 819 818 817 817 816 815 814 813 812 811 810 809 808 807 806 805 804 803 802 801 800 799 798 797 796 794 794 792 791 790 789 788 787 786 785 784 784 783 782 781 781 780 779 778 777 775 775 774 773 772 771 770 769 768 767 766 765 764 764 763 762 761 760 759
821 821 820 819 819 818 817 816 815 814 814 813 812 811 810 809 808 807 806 805 804 802 801 800 799 798 797 796 795 794 793 792 791 790 789 788 787 786 785 784 783 782 781 780 780 779 778 777 776 774 774 773 772 771 770 769 769 767 766 765 764 763 762 761 761 760 759 758 757
821 820 819 819 818 817 816 815 814 813 812 811 810 809 808 807 806 805 804 803 802 801 800 799 798 797 796 794 793 792 791 790 789 788 787 786 785 784 783 782 781 780 779 779 778 777 776 775 774 773 771 770 770 769 768 767 766 765 764 763 762 761 760 758 758 758 757 756 755
820 819 818 817 817 816 815 814 813 812 811 810 809 808 807 806 805 804 803 802 800 799 798 797 796 795 794 793 792 791 790 789 788 786 785 784 783 782 781 780 779 779 778 777 776 775 774 773 772 771 769 769 768 767 766 765 764 763 762 760 759 759 757 756 755 755 754 754 753
819 818 817 816 815 815 814 813 812 811 810 809 808 807 806 804 804 803 801 800 799 798 797 795 794 794 793 791 790 789 788 787 786 785 784 782 781 780 779 778 777 777 776 775 774 773 772 771 770 769 768 766 765 764 764 763 762 761 759 758 757 756 755 754 753 753 752 751 750
818 817 816 815 814 814 813 812 811 809 809 808 806 805 804 803 802 801 800 799 797 796 795 794 793 792 791 790 789 787 786 785 784 783 782 780 779 779 778 776 775 774 774 773 772 771 770 769 768 767 766 764 763 762 761 761 760 759 757 756 755 754 753 752 751 751 750 749 748
817 816 815 814 813 812 812 810 809 809 807 806 805 804 803 802 801 799 799 797 796 795 794 793 791 790 789 788 787 786 784 783 782 781 779 779 777 776 775 774 773 772 771 770 769 769 768 767 766 765 764 763 761 760 759 758 757 756 755 754 753 752 751 750 749 749 748 747 746
815 815 814 813 812 811 810 809 809 807 806 805 804 803 802 800 799 798 797 796 794 793 792 791 790 789 787 786 785 784 783 781 780 779 778 776 775 774 773 772 771 770 769 768 767 766 765 764 764 763 762 761 759 758 757 756 754 754 752 751 750 749 749 748 747 746 746 745 744
814 814 813 812 811 810 809 808 807 806 805 804 802 801 800 799 798 797 795 794 793 792 791 789 788 787 786 784 783 782 781 779 778 777 776 774 773 772 771 769 769 768 767 766 765 764 763 762 761 761 760 759 757 756 754 753 752 751 750 749 748 747 746 745 744 744 743 742 741
813 813 812 811 810 809 808 807 806 804 804 802 801 800 799 798 797 795 794 793 792 791 789 788 787 785 784 783 782 780 779 778 776 775 774 772 771 770 769 768 766 765 764 764 762 761 760 760 759 758 757 756 755 754 752 751 750 749 747 746 745 744 744 743 742 742 741 740 739
812 812 811 810 809 808 807 805 804 803 802 801 799 799 797 796 795 794 793 791 790 789 788 787 785 784 783 781 780 779 777 776 774 773 771 770 769 768 766 765 764 763 762 761 760 759 758 757 757 756 755 754 753 751 750 749 748 746 745 744 743 742 741 741 740 739 739 738 737
812 811 810 809 808 807 805 804 803 802 800 799 798 797 796 795 794 793 791 790 789 788 787 785 784 782 781 779 778 777 775 774 773 771 769 768 767 766 764 763 762 761 760 759 758 757 756 755 754 754 752 751 750 749 748 746 745 744 743 742 741 740 739 739 738 737 736 735 734
811 810 809 808 806 805 804 803 802 800 799 798 797 796 794 794 792 791 790 789 788 786 785 784 782 781 779 778 776 774 773 772 770 769 768 766 765 764 763 762 760 759 757 756 755 754 754 753 752 751 750 749 747 746 745 744 743 741 740 739 739 738 737 736 736 735 734 733 732
810 809 808 806 805 804 803 801 800 799 798 797 795 794 793 792 791 790 789 787 786 785 783 782 780 779 777 776 774 773 771 769 768 767 765 764 763 762 760 759 758 757 755 754 753 753 752 750 749 749 748 746 745 743 742 741 740 739 737 736 736 735 734 734 733 732 731 730 729
809 808 806 805 804 803 801 800 799 798 796 795 794 793 792 791 789 788 787 786 784 783 782 780 779 777 775 774 772 771 769 767 766 764 763 762 761 760 759 757 756 755 753 752 751 751 750 749 748 746 745 744 743 741 740 739 738 737 735 734 733 732 731 731 730 729 729 727 726
808 806 805 804 803 801 800 799 798 796 795 794 793 792 790 789 788 787 785 784 783 781 780 778 777 775 774 772 770 769 767 766 764 762 761 760 759 758 757 755 754 753 751 750 749 749 749 748 747 745 744 742 741 739 738 737 735 734 733 732 731 729 729 728 727 727 726 725 724
806 805 804 803 801 800 799 798 796 795 794 793 791 790 789 788 787 785 784 782 781 779 778 776 775 773 771 770 768 767 765 764 762 761 759 758 756 755 754 754 752 750 749 748 747 747 746 746 745 744 743 741 739 738 736 734 733 732 731 730 729 728 726 725 724 723 723 722 721
805 804 802 801 800 799 798 796 795 794 792 791 790 789 788 786 785 784 782 781 779 778 776 775 773 771 770 768 766 765 763 762 760 759 758 756 754 753 752 751 750 748 747 746 745 745 744 744 743 742 741 739 738 736 734 732 731 729 729 728 726 725 724 723 721 720 719 719 718
804 802 801 800 799 798 796 795 794 792 791 790 789 788 786 785 784 782 781 779 778 776 774 773 771 770 768 766 764 763 761 760 759 757 756 754 753 751 750 749 747 746 745 744 744 743 742 741 740 739 739 738 736 734 732 730 729 727 726 725 724 723 722 720 719 718 717 715 714
802 801 800 799 798 796 795 794 792 791 790 789 787 786 785 783 782 780 779 777 776 774 773 771 769 768 766 764 763 761 759 758 757 755 754 752 751 749 748 747 745 744 743 743 742 741 740 739 738 737 736 735 734 732 730 729 727 725 724 723 722 721 720 718 717 716 714 713 712
801 800 799 798 796 795 794 792 791 790 789 787 786 784 783 782 780 779 778 776 774 773 771 770 768 766 764 763 761 759 758 756 755 754 752 750 749 747 746 745 744 742 741 740 739 739 737 736 735 734 734 733 732 730 728 727 725 724 722 720 719 719 717 716 715 713 712 711 709
800 799 798 796 795 794 792 791 790 789 787 786 784 783 782 780 779 777 776 774 773 771 769 768 766 764 763 761 759 758 756 754 753 752 750 749 747 745 744 743 741 740 739 738 737 736 735 734 733 732 731 730 729 728 726 724 723 722 720 719 717 716 715 714 712 711 709 709 707
799 798 796 795 794 792 791 789 788 787 786 784 783 782 780 779 777 776 774 773 771 769 768 766 764 763 761 759 758 756 754 753 751 750 749 747 746 744 742 740 739 738 737 736 735 734 733 732 731 730 729 728 727 725 724 722 721 719 718 716 715 714 713 711 710 709 707 706 705
798 796 795 794 792 790 789 788 787 785 784 783 781 780 779 777 775 774 773 771 769 768 766 764 763 761 759 757 756 754 752 751 750 748 747 745 744 742 740 739 737 736 735 734 733 732 731 729 729 728 726 725 724 723 721 720 719 717 715 714 713 711 710 709 708 706 705 704 703
796 795 794 792 791 789 788 787 785 784 783 781 779 778 777 775 774 772 771 769 768 766 764 763 761 759 758 756 754 752 751 749 748 747 745 744 742 740 739 737 735 734 733 732 731 730 729 728 726 725 724 723 722 720 719 718 716 715 713 712 710 709 708 707 705 704 703 702 701
794 793 792 790 789 788 786 785 784 782 781 779 778 776 775 774 773 771 769 768 766 764 763 761 759 758 756 754 753 751 749 747 746 745 744 742 740 738 736 734 733 732 731 730 729 728 727 726 724 723 722 721 719 718 717 715 714 712 711 709 708 707 705 704 703 701 700 699 698
794 792 790 789 788 786 785 783 782 780 779 778 776 775 773 772 771 769 768 766 764 763 761 759 757 756 754 752 751 749 748 746 744 743 741 740 739 737 734 732 731 730 729 729 727 726 725 724 722 721 720 719 717 716 714 713 712 710 709 707 706 704 703 702 700 699 697 696 695
792 791 789 788 786 784 783 782 780 779 777 776 774 773 772 770 769 767 766 765 763 761 759 757 756 754 752 750 749 748 746 745 743 741 739 739 737 735 733 730 729 728 727 726 725 724 723 722 720 719 718 717 715 714 712 711 709 708 706 705 703 702 700 699 698 696 695 694 693
791 789 788 786 784 783 782 780 779 777 776 774 773 772 770 769 767 766 764 763 761 759 757 755 754 752 750 749 747 745 744 743 742 740 738 736 735 734 732 729 727 726 725 724 724 722 721 720 719 717 716 715 714 712 710 709 707 705 704 702 701 699 698 697 695 694 692 691 690
789 788 786 785 783 781 780 779 777 776 774 773 771 770 769 767 766 764 763 762 760 758 756 754 752 750 749 747 745 744 742 741 740 739 737 735 734 732 730 728 726 724 723 723 721 720 719 718 716 715 714 713 712 710 709 707 705 703 702 700 699 697 696 694 693 692 690 688 687
788 786 785 783 782 780 779 777 775 774 773 771 770 769 767 766 764 763 761 760 758 756 754 752 750 749 747 746 744 742 740 739 738 737 735 734 732 730 729 727 724 723 721 720 719 718 717 716 714 713 712 711 710 708 707 705 703 701 699 698 696 695 693 692 691 689 688 686 685
786 785 783 782 780 779 777 775 774 773 771 770 769 767 766 764 763 761 759 758 756 755 753 751 749 747 745 744 742 740 738 736 735 734 733 732 730 729 727 725 723 721 719 719 717 716 715 714 713 711 710 709 708 706 704 703 701 699 697 696 694 693 691 689 688 687 685 684 683
Wind_Speed
4 5 5 6 8 8 9 9 9 10 10 10 10 11 11 11 12 13 13 13 14 14 14 14 15 15 16 16 16 16 17 17 17 17 18 18 18 18 19 19 19 19 19 20 20 20 20 20 20 19 19 19 20 20 20 20 21 21 21 22 22 23 23 23 24 25 25 26 26
4 4 5 6 7 7 7 7 8 8 9 9 10 10 11 12 13 14 14 14 14 14 15 15 15 16 16 16 17 17 17 18 18 18 19 19 19 19 19 19 19 19 19 20 20 20 20 20 19 19 19 19 19 20 20 21 21 22 23 23 23 23 23 23 24 25 26 26 27
4 4 5 5 5 6 7 7 8 9 9 10 10 11 12 12 13 14 14 15 15 15 15 15 15 16 16 17 17 18 18 19 19 20 20 20 21 21 20 20 20 20 20 20 20 20 20 20 20 20 20 19 20 20 20 21 21 22 23 24 24 23 23 23 24 24 24 25 25
4 5 5 6 6 7 7 8 9 10 10 11 11 12 13 13 13 14 14 15 15 15 15 15 16 17 17 18 18 19 19 19 20 20 21 21 22 22 21 21 21 20 20 20 20 20 20 20 20 20 20 20 21 21 21 21 21 21 22 23 23 23 23 23 24 23 23 24 24
5 5 6 6 7 8 8 9 10 10 11 11 12 13 13 13 13 13 14 14 15 15 16 17 17 18 18 18 19 19 20 20 20 20 21 21 22 22 22 22 21 21 20 20 20 20 20 21 21 21 21 21 22 22 22 22 22 23 23 23 23 23 23 23 23 23 23 23 24
6 6 6 7 7 8 8 9 10 11 11 12 13 13 13 13 14 14 15 16 17 17 18 18 18 18 18 19 19 19 19 20 20 21 21 21 22 22 22 21 21 21 20 20 20 20 20 20 21 21 21 21 22 22 23 23 23 24 24 24 24 23 23 23 23 23 23 24 24
7 7 7 8 8 9 9 10 11 11 12 13 13 14 15 15 16 16 17 18 18 18 18 18 18 18 18 18 19 19 19 20 20 20 21 21 21 21 21 21 21 21 21 21 21 20 20 20 20 21 21 21 22 22 22 22 23 23 24 25 24 24 24 24 24 24 24 25 25
7 8 8 8 9 9 10 11 12 13 13 14 14 15 16 17 17 18 19 19 18 18 18 17 17 18 18 19 19 19 20 20 21 21 21 21 21 21 21 21 21 21 21 21 20 20 20 20 20 21 21 21 21 21 21 21 22 23 24 24 25 24 24 24 24 24 24 25 26
8 8 9 9 10 10 11 13 13 14 14 15 16 16 17 17 18 18 18 18 18 18 18 18 18 19 19 19 20 20 20 20 21 21 21 21 21 21 21 21 21 21 21 21 20 20 20 20 20 21 21 21 21 22 22 22 22 23 24 24 25 25 25 25 25 25 26 26 27
9 9 10 10 11 12 13 14 14 15 15 16 17 17 17 18 18 18 18 18 18 18 18 19 19 19 20 20 20 20 20 21 21 21 21 21 21 21 21 21 21 21 21 21 20 20 20 20 20 21 22 22 22 23 23 23 24 25 25 25 25 26 26 26 26 27 27 27 28
10 10 11 11 12 13 14 15 15 15 16 16 17 17 17 18 18 18 18 18 19 19 19 19 19 19 20 20 20 20 20 20 20 21 21 21 21 22 22 22 22 22 22 22 21 21 20 20 21 22 22 22 23 23 24 24 24 25 26 26 26 27 27 27 28 28 28 28 29
11 11 12 12 13 14 15 15 16 16 16 17 17 17 17 18 18 18 19 19 19 20 20 19 19 19 20 20 20 20 20 20 20 21 21 22 22 22 22 22 22 23 23 22 21 21 21 21 22 22 23 23 23 23 24 24 24 25 26 26 27 27 28 29 29 28 27 27 28
12 12 13 13 14 14 15 16 16 16 16 17 17 17 18 18 18 19 19 19 20 20 19 19 19 19 19 20 20 20 20 20 21 21 22 22 23 23 23 23 23 23 23 22 22 21 21 22 23 23 24 25 24 24 24 25 25 26 26 27 27 28 28 29 29 28 28 28 28
13 13 14 14 15 15 16 16 16 16 16 17 17 18 18 19 19 19 19 19 19 20 20 20 19 19 19 19 20 20 21 21 22 22 23 23 23 23 23 23 23 23 23 23 22 22 23 23 24 24 25 26 26 26 26 26 26 27 28 28 29 29 29 29 29 28 28 28 29
14 14 15 15 16 16 16 16 16 17 17 18 18 19 19 19 19 19 19 19 19 20 20 19 19 19 19 19 20 21 21 22 22 22 23 23 23 23 23 23 23 24 24 24 24 24 24 25 25 25 26 26 27 27 27 27 28 28 29 29 29 30 30 30 29 28 28 28 29
15 16 16 16 17 17 17 17 17 17 18 18 19 19 19 19 19 19 19 19 19 19 19 19 19 20 20 20 20 21 21 22 22 22 22 23 23 23 23 24 24 25 26 27 27 27 26 26 26 26 26 27 28 29 29 29 30 30 30 30 31 31 31 31 30 30 30 29 29
16 16 17 17 17 18 18 18 18 18 19 19 20 20 19 19 19 19 19 19 19 19 19 19 20 20 20 21 21 21 21 21 22 22 22 23 23 24 25 25 26 27 28 28 28 28 27 26 26 26 27 28 29 30 30 31 32 32 32 32 31 32 31 31 30 31 31 30 31
17 17 17 17 18 18 19 19 19 19 20 20 20 20 20 19 19 19 19 19 19 19 20 21 20 20 21 21 21 21 21 22 22 23 23 24 25 25 26 27 27 28 29 29 29 28 28 28 27 27 27 28 29 30 31 32 32 32 32 32 32 32 31 31 31 31 30 30 30
17 18 18 18 18 19 19 19 20 20 20 20 20 20 20 20 20 20 20 20 19 20 20 21 21 21 22 22 22 22 22 23 23 24 24 25 26 26 27 27 28 28 29 30 30 30 30 29 28 28 28 28 29 30 31 32 32 32 32 31 31 31 31 30 30 30 29 29 29
17 18 18 18 19 19 20 20 20 21 21 20 21 21 21 21 20 20 20 20 20 20 21 21 22 22 23 23 23 23 23 23 24 25 25 26 26 27 27 28 29 29 30 31 31 31 31 30 29 29 29 29 30 30 31 31 31 30 30 30 30 30 30 29 29 29 28 28 28
17 17 18 19 19 20 20 20 21 21 21 21 21 21 21 21 20 20 20 21 21 21 21 22 22 23 23 24 24 25 25 24 25 25 26 26 27 27 28 28 29 29 30 30 30 31 31 31 30 30 30 30 30 31 31 31 30 30 31 30 30 29 29 29 29 28 28 29 29
17 18 18 19 20 20 21 21 21 21 21 21 21 21 21 21 21 21 21 21 21 21 22 22 23 23 24 24 25 26 26 26 25 26 26 26 27 27 27 27 28 29 29 30 30 31 31 31 31 31 31 31 32 33 33 32 31 31 31 31 30 30 30 29 29 29 29 30 30
18 19 19 20 20 21 21 22 22 21 21 21 21 21 21 21 21 21 21 21 21 22 22 23 23 24 24 25 26 26 26 27 27 26 26 26 27 27 27 27 27 28 29 30 30 30 30 30 30 30 30 31 32 32 32 31 31 31 31 32 31 31 31 30 30 29 29 30 30
19 19 20 20 21 21 22 22 22 21 21 21 21 21 21 21 21 21 21 22 22 23 23 23 24 24 25 26 26 26 26 27 27 27 27 27 26 27 27 27 27 27 28 28 28 28 27 27 28 28 29 29 30 30 30 30 30 31 31 31 32 32 32 31 30 30 29 29 29
19 20 21 21 21 22 22 22 21 21 21 21 21 21 21 21 21 22 22 22 23 24 24 25 25 25 25 25 25 25 25 26 26 27 27 27 27 26 26 26 26 26 26 27 27 26 25 25 26 27 28 29 30 31 31 32 32 31 31 31 31 31 31 31 31 30 30 29 29
20 21 21 21 21 21 21 21 21 21 21 21 21 21 21 22 22 22 23 23 24 24 25 25 25 25 25 25 25 25 25 25 25 26 27 27 28 28 27 27 26 26 27 28 27 26 26 26 27 28 29 30 30 30 30 31 31 31 30 30 30 30 30 31 31 31 30 30 30
21 21 21 21 21 21 21 21 21 21 21 21 22 22 22 22 22 23 23 24 25 25 25 25 25 25 24 24 24 24 25 25 25 26 27 28 29 29 28 27 26 27 27 28 27 26 27 28 28 29 29 29 30 30 31 31 31 31 31 30 30 30 30 30 31 31 31 30 30
22 21 21 21 21 21 21 21 22 22 22 22 22 22 22 22 23 23 24 24 25 25 25 25 24 24 24 24 24 25 25 26 26 26 27 27 27 27 27 27 27 27 27 27 27 28 29 29 30 30 30 29 30 31 32 32 31 30 30 29 28 28 28 28 28 28 29 29 29
22 21 20 20 21 21 21 22 22 22 22 22 22 23 23 23 23 24 24 25 25 25 25 25 24 24 24 24 25 26 26 27 26 26 26 27 27 27 27 28 28 28 28 28 28 29 30 30 30 30 30 29 29 30 30 30 29 29 28 27 27 28 28 28 28 29 29 29 28
21 20 20 21 21 21 22 22 22 22 22 22 22 23 23 24 24 25 25 25 26 25 25 25 25 25 25 26 26 27 27 27 26 26 26 27 27 27 28 28 28 29 29 29 29 30 30 30 30 30 30 29 29 30 30 30 29 28 27 27 28 28 29 29 29 30 30 29 28
20 20 20 21 21 22 22 22 22 22 23 23 23 24 24 25 25 25 25 25 26 26 26 26 26 26 27 27 27 27 27 27 27 26 26 27 27 28 29 29 29 30 30 29 29 29 30 30 30 30 30 29 29 30 30 29 28 28 28 28 29 29 30 29 29 29 29 29 29
20 20 21 21 22 22 22 22 22 23 23 23 24 24 25 25 25 25 25 26 26 26 26 26 26 27 27 27 27 27 27 27 27 27 26 27 27 28 29 30 30 30 30 29 29 29 30 30 30 30 30 30 30 30 30 30 29 29 28 29 29 29 30 30 29 29 29 29 28
21 21 21 21 21 22 22 23 23 23 24 24 24 25 25 25 26 26 25 25 26 26 26 26 26 27 27 27 27 27 27 27 27 27 27 27 28 29 29 30 30 29 29 29 29 29 30 30 30 30 30 30 30 30 30 29 28 28 28 28 28 28 29 29 28 29 29 29 29
21 21 21 21 22 23 23 24 24 24 24 25 25 25 25 25 26 26 26 26 25 25 26 26 26 26 27 27 27 27 27 27 27 27 27 28 28 29 30 30 30 29 29 29 30 30 30 31 31 30 30 30 30 29 29 28 27 27 27 28 28 28 28 29 29 30 30 31 30
21 20 21 22 23 23 24 24 24 25 25 25 25 25 25 25 25 26 26 26 26 26 26 26 26 26 27 27 27 27 27 28 28 28 28 28 29 29 30 31 30 30 30 30 30 30 30 30 30 30 30 30 29 29 28 27 27 27 27 27 28 29 29 29 29 30 31 31 31
20 21 22 23 24 24 24 24 24 24 25 25 25 25 25 25 25 26 26 26 26 26 26 26 26 27 27 27 27 27 27 27 28 29 29 29 29 30 31 31 31 30 30 29 30 30 30 30 30 30 30 30 29 28 27 26 26 26 27 27 28 28 28 29 29 30 30 30 30
21 22 23 23 24 24 24 24 24 24 25 25 25 25 25 26 26 26 25 25 26 26 26 26 26 27 27 27 28 28 28 28 28 29 29 29 29 29 30 31 31 31 30 29 29 30 30 30 30 30 29 29 28 27 26 25 25 25 26 27 28 28 28 28 28 28 29 30 30
22 22 23 23 24 24 24 24 24 25 25 25 25 25 25 26 26 26 25 25 25 26 27 27 27 27 28 28 28 29 29 28 28 28 29 29 29 29 30 31 31 31 30 30 30 30 30 30 30 30 29 28 28 27 26 25 25 25 26 27 27 28 27 27 27 27 28 29 30
22 22 23 23 24 24 24 24 24 24 25 25 25 25 25 25 25 25 25 25 25 26 27 27 28 28 28 29 29 29 29 29 28 28 28 29 29 29 29 31 31 31 31 30 30 30 30 30 30 29 29 28 27 27 26 25 25 26 26 26 26 27 27 26 26 26 27 28 28
22 23 23 23 24 24 24 24 24 24 24 25 25 25 25 25 25 25 26 25 25 26 27 28 28 29 29 29 29 29 30 29 28 28 28 28 29 29 29 30 31 31 31 30 30 30 30 30 29 29 28 28 27 27 26 26 25 25 25 25 24 24 25 25 25 25 26 26 27
23 23 23 23 24 24 24 24 25 25 25 25 25 25 25 25 25 25 25 26 26 26 27 28 28 29 29 29 29 29 30 30 29 28 28 28 29 29 29 29 30 30 30 30 29 29 29 29 29 29 28 28 28 28 27 26 25 25 25 25 24 23 24 25 26 25 25 25 25
Wind_Direction
312 310 309 308 309 309 308 306 304 303 302 301 299 298 297 296 296 295 295 295 294 293 292 292 291 291 292 293 293 294 294 295 295 295 295 294 293 292 291 289 285 282 278 275 272 269 266 263 260 258 255 254 253 252 251 251 251 251 251 250 251 251 251 251 250 250 249 248 248
313 310 307 306 308 308 307 304 302 302 300 299 297 296 295 295 294 294 293 293 292 291 291 291 290 290 291 292 292 293 293 294 295 295 295 294 294 293 292 290 287 284 281 278 274 270 267 264 261 258 256 255 253 253 252 251 251 252 252 252 252 253 253 253 253 252 252 251 251
318 316 312 309 308 306 305 302 301 300 299 298 296 295 294 293 292 292 292 292 291 291 290 290 290 290 291 291 292 292 292 293 293 294 294 294 294 294 293 291 288 286 283 279 276 272 268 266 263 260 258 257 255 254 254 253 252 252 253 253 254 254 254 254 254 254 254 253 253
322 319 316 312 310 309 307 304 303 303 302 300 298 297 295 293 292 291 290 291 290 289 289 289 290 290 291 291 291 291 292 292 292 292 293 293 293 293 292 291 289 287 284 281 277 274 270 267 265 262 261 259 258 258 257 257 255 255 254 255 254 254 254 255 256 256 255 255 254
324 321 317 313 311 310 307 305 304 304 303 301 300 299 297 295 292 291 291 290 290 289 289 289 290 290 290 290 290 291 291 291 291 291 291 291 292 292 292 290 289 287 284 282 279 276 273 270 268 265 264 263 262 261 260 260 260 259 258 258 257 256 256 256 256 257 256 255 256
323 318 314 311 310 309 307 305 305 304 303 301 300 298 297 296 294 293 293 292 292 291 291 290 289 289 289 290 290 291 291 291 291 291 291 291 291 291 290 289 287 286 285 283 281 278 276 274 272 269 267 266 264 263 263 262 262 262 262 261 260 259 258 258 258 258 257 257 257
317 314 311 310 309 308 306 305 305 304 303 301 299 298 297 296 296 295 295 294 294 293 292 291 290 290 290 291 291 291 291 291 291 290 290 290 289 289 288 288 287 286 285 284 283 281 279 277 275 272 271 269 267 266 265 264 263 263 263 263 262 262 261 260 260 260 260 259 259
312 309 308 308 307 306 305 305 305 305 304 302 300 298 298 298 297 297 296 296 294 294 293 292 291 291 291 291 291 291 291 291 291 290 290 289 289 288 288 288 287 287 285 285 284 283 282 280 278 275 274 272 271 269 268 267 266 265 265 265 265 265 264 263 263 263 263 262 262
310 308 307 307 305 304 304 304 305 304 303 301 299 299 298 298 298 297 297 296 295 294 293 293 292 292 292 291 291 291 291 291 291 290 290 289 288 288 288 288 287 287 286 286 285 284 283 282 280 277 276 275 274 273 273 272 271 270 269 269 269 268 267 267 266 266 266 266 265
310 309 308 307 306 305 305 305 305 304 302 300 300 299 299 299 298 298 297 297 296 295 294 293 293 293 293 292 292 292 292 291 291 291 290 289 289 288 288 288 288 287 287 286 286 285 284 283 280 278 277 276 276 276 276 276 275 275 274 272 272 271 270 269 268 268 268 268 268
310 309 308 307 306 306 306 305 304 303 302 301 300 300 300 299 299 299 298 298 297 296 295 295 295 294 294 293 293 292 292 291 291 290 290 290 289 289 288 288 287 287 286 286 286 285 284 282 281 279 278 277 277 277 277 277 276 275 275 274 273 272 272 271 269 269 269 269 268
311 310 308 307 306 306 306 305 304 303 301 301 300 300 300 300 300 300 300 299 298 297 297 296 296 295 295 294 293 293 292 292 291 291 291 290 290 289 288 288 287 286 285 285 285 284 283 281 280 280 279 279 279 278 278 278 277 276 275 274 273 272 272 271 270 269 269 269 269
312 311 310 308 308 307 306 304 303 302 301 300 301 301 301 302 302 302 301 300 299 299 298 298 297 296 295 294 294 293 293 293 292 292 291 290 290 289 289 288 287 286 285 284 283 283 281 280 280 280 280 280 279 279 278 278 277 276 275 275 274 273 272 271 271 271 271 270 270
312 312 311 310 309 308 306 304 303 302 301 301 301 302 302 303 303 302 302 300 300 299 299 298 297 296 295 294 294 294 294 293 293 292 291 290 289 289 288 287 286 285 284 284 283 281 281 280 280 280 280 280 280 279 279 278 277 276 276 275 275 274 273 273 273 273 273 272 272
313 312 312 311 309 308 306 305 304 303 302 302 303 303 303 303 303 302 301 300 299 299 299 298 297 296 295 295 294 294 294 293 292 292 291 290 289 288 288 287 286 285 284 283 282 281 280 280 280 281 281 281 280 280 280 279 278 277 276 276 276 275 275 275 276 275 275 274 274
314 313 313 312 310 309 307 306 305 304 303 303 303 303 303 303 302 302 301 300 299 299 298 297 297 296 296 295 295 294 294 293 292 291 290 289 289 288 287 286 286 285 284 283 283 282 281 280 280 281 281 281 281 281 281 280 279 278 277 277 276 276 276 276 276 276 275 275 274
315 315 314 312 311 309 308 307 306 305 304 303 303 303 302 302 301 301 300 299 299 298 297 297 296 296 296 295 295 294 293 293 292 290 289 289 288 288 287 286 286 285 285 284 284 283 282 282 281 281 281 281 281 282 281 281 281 280 279 279 278 277 277 277 277 276 276 275 274
316 315 314 313 312 310 309 307 306 305 304 303 303 302 302 301 301 300 299 298 298 297 297 296 296 296 295 295 294 294 292 292 291 290 289 289 288 288 287 287 286 286 285 285 284 283 283 283 283 283 283 282 282 282 282 282 282 281 281 280 280 279 278 278 277 277 276 275 274
317 316 315 314 312 311 309 308 306 305 304 304 303 302 301 301 300 299 299 298 297 297 297 297 297 296 295 294 294 293 292 291 291 290 289 289 288 288 287 287 287 286 286 285 285 284 284 284 284 284 284 283 283 283 283 283 282 282 282 281 281 280 280 279 279 279 278 276 275
317 317 316 314 312 311 309 308 307 306 305 304 303 302 301 301 300 299 299 298 298 298 297 297 297 296 296 295 295 294 293 292 291 291 290 289 289 288 288 287 287 287 286 286 286 285 285 285 285 285 284 284 284 283 283 283 283 283 282 282 281 281 281 281 281 281 279 278 277
318 317 315 314 312 310 309 308 307 305 304 303 302 302 301 301 300 299 298 298 298 298 298 297 297 297 296 296 296 295 294 293 292 291 290 290 289 288 288 288 288 288 287 287 286 286 286 286 286 285 285 284 284 283 283 283 283 282 282 282 282 282 282 282 282 281 280 279 277
318 316 315 313 312 310 309 307 306 305 304 303 302 301 301 300 300 299 299 299 299 298 298 297 297 297 297 297 296 296 295 294 292 291 290 290 289 289 289 289 288 288 287 287 287 287 287 287 286 286 286 285 285 285 284 284 283 282 282 283 283 282 282 282 282 281 280 279 277
318 317 315 313 311 310 309 307 306 304 303 302 302 301 301 300 300 299 299 299 299 298 298 298 297 297 297 296 296 295 295 294 292 291 290 289 289 289 289 289 288 288 287 287 287 287 287 288 288 288 287 287 287 287 287 285 284 283 283 284 284 284 283 283 282 281 280 279 278
318 316 315 313 311 310 308 307 305 304 303 302 301 301 300 300 300 300 300 299 299 298 298 298 298 297 297 296 295 294 294 293 292 292 291 290 290 290 290 289 289 288 287 286 286 286 287 288 288 289 289 289 289 288 287 287 285 284 284 284 284 285 285 284 283 282 281 280 279
317 316 315 313 311 310 308 307 305 303 302 302 301 300 300 300 300 300 300 299 299 299 298 298 298 298 297 296 295 294 293 292 292 292 292 291 291 290 290 290 289 288 286 286 286 286 286 286 287 289 289 290 289 289 288 287 286 285 285 284 284 285 286 286 285 284 283 281 279
318 316 315 313 312 310 308 306 304 303 302 302 301 301 300 300 300 300 300 299 299 299 299 299 298 298 297 297 295 294 293 292 292 292 292 292 292 291 290 289 289 288 287 286 286 286 287 287 288 289 290 290 290 290 289 289 288 288 287 286 286 286 286 286 286 285 284 282 280
319 317 315 314 312 309 307 306 305 304 303 303 302 301 301 301 301 300 299 299 299 299 299 299 299 298 298 297 295 294 293 293 292 292 291 291 291 291 290 290 288 288 288 288 288 288 290 291 291 291 291 291 291 290 290 290 289 289 288 287 286 285 285 284 284 285 284 283 281
319 317 315 313 311 309 308 307 306 305 304 304 303 302 301 301 300 300 299 299 299 300 300 300 299 299 298 297 295 294 294 293 293 292 292 291 291 291 291 290 290 290 289 290 290 291 292 293 293 293 292 292 291 291 290 290 289 289 288 287 285 284 284 283 283 283 283 283 282
319 317 314 312 310 309 309 308 307 306 305 304 304 303 301 301 300 300 300 300 301 301 301 301 300 299 298 296 295 295 294 294 293 293 293 292 292 291 291 292 292 291 291 292 293 293 294 294 294 294 293 293 292 291 291 290 289 289 288 286 286 285 285 283 283 283 283 282 282
318 315 313 311 310 309 309 308 307 306 306 305 304 303 302 301 301 301 301 301 301 301 300 300 300 298 297 296 295 295 295 295 294 294 294 294 293 293 293 293 293 293 293 294 294 295 295 295 295 295 295 295 294 293 292 291 290 288 287 286 285 285 285 284 282 281 281 281 281
316 313 312 311 310 309 308 308 307 306 306 305 304 303 302 302 302 302 301 301 301 301 300 300 298 297 296 296 296 296 296 296 296 295 295 295 295 295 295 294 294 294 295 295 296 296 297 297 297 297 297 297 296 295 294 292 290 288 287 286 285 285 284 283 281 280 280 281 281
313 312 311 309 309 308 308 308 307 307 306 305 304 303 302 302 301 301 301 301 301 301 301 300 299 298 298 298 297 297 297 297 297 296 296 296 296 296 296 296 296 296 296 297 298 298 299 299 299 299 299 299 298 296 294 292 290 288 287 286 285 284 284 283 282 281 281 281 281
312 311 309 308 307 308 308 308 308 307 306 305 304 303 302 302 302 302 301 301 301 301 301 300 300 299 299 299 299 298 298 298 297 297 297 297 297 297 297 297 297 297 298 299 299 300 300 300 300 300 300 299 298 296 294 292 290 288 287 286 285 285 284 283 282 282 281 281 281
311 309 308 307 307 308 308 308 308 307 306 305 304 303 302 302 302 302 302 302 302 301 300 300 299 299 298 298 299 299 299 298 298 298 298 299 299 298 298 297 297 298 299 300 300 301 301 301 300 300 300 299 298 296 294 292 290 287 286 285 285 285 284 283 282 281 281 280 280
309 308 307 308 308 308 308 308 308 307 306 305 304 303 303 302 302 302 302 302 302 301 300 299 299 298 298 298 298 298 299 299 299 299 299 300 300 299 298 298 298 298 299 300 300 301 301 301 300 300 300 299 298 296 294 291 289 288 286 285 285 285 284 283 282 281 281 280 279
307 307 308 308 308 308 307 307 307 306 305 304 304 303 303 303 303 302 302 302 302 301 300 299 299 299 299 299 299 299 299 299 300 300 300 300 300 299 299 298 298 299 300 300 300 300 300 300 300 300 300 299 297 296 293 291 289 288 287 286 285 285 284 283 282 282 281 280 279
307 308 307 307 307 307 306 306 305 305 304 304 303 304 303 303 303 303 303 303 302 301 300 300 300 300 300 300 300 300 299 299 300 300 300 300 300 300 299 299 299 299 300 300 300 300 300 300 300 300 300 299 297 295 293 291 288 287 287 287 286 286 285 284 284 283 282 281 281
307 307 306 306 306 305 305 305 304 304 303 303 303 303 303 303 303 302 303 303 302 301 300 300 300 300 300 300 300 300 299 299 299 299 299 299 299 299 299 299 299 299 300 300 300 299 300 300 299 299 299 298 297 295 293 291 288 287 286 286 287 286 286 285 285 284 283 282 283
307 306 305 305 304 304 304 304 303 303 303 303 303 303 303 303 302 302 302 302 301 300 300 300 300 300 300 300 300 300 299 299 299 299 299 299 299 299 299 298 298 299 299 299 299 299 299 299 299 300 299 299 297 296 293 291 289 287 286 285 285 286 286 286 285 284 284 283 285
306 305 305 304 303 303 303 302 302 302 302 302 303 303 302 302 301 301 301 301 300 300 300 300 300 300 300 301 300 300 299 299 299 298 298 298 299 299 299 298 298 298 298 298 299 299 299 299 299 300 300 299 298 296 293 290 288 287 286 285 284 284 286 286 286 285 284 284 285
305 305 304 303 302 302 302 301 301 302 302 302 301 301 301 301 301 301 301 301 301 301 300 300 300 300 300 300 300 299 299 298 298 298 298 299 299 299 299 298 297 297 298 298 298 299 299 299 300 300 300 299 297 295 293 290 288 286 286 285 284 284 284 286 287 286 285 283 283